STARLINK-36497, 67323

Orbit data source: Space-Track

STARLINK-36497, 67323 is a payload satellite owned by SpaceX/Seattle (US) in LEO that was launched on Sun, 04 Jan 2026 UTC via an FALCON 9 launch vehicle from the Air Force Eastern Test Range (AFETR). Payload-class satellites include a variety of spacecraft equipped with specific instruments for various scientific and technological missions. These include communications satellites like Starlink; space stations such as the ISS; scientific satellites like the Hubble; Earth observation satellites from companies like Planet Labs, Umbra, and HawkEye 360; GPS; miniature CubeSats for education and research; and military/defense satellites.

Loading next visibility...
Identifier
67323, 2026-002U
Orbit
LEO
Country
Flag of USUS
Related business
Manufacturer
SpaceX/Seattle
Mission
Operational Commercial Communications
Bus & Motor
STARLINK V2MO, Unknown motor
Mass
575 kg wet, ~530 kg dry
Launch date (UTC)
2026-01-04 (2 months ago)
Launch vehicle
FALCON 9
Launch site
Air Force Eastern Test Range (AFETR)
Object type
Payload
Rocket body
Debris
Shape & HBR
Box + 2 Pan, 17.7 m
Radar Cross Section
36.964 m²

Expand to show TLE details & history
Last TLE update: 23 hours ago

TLE from 23 hours ago
0 STARLINK-36497
1 67323U 26002U   26062.18297641  .00026140  00000-0  95547-3 0  9991
2 67323  42.9995   2.0213 0000953 277.2402  82.8341 15.27600512 10141
Epoch: 2026-03-03T04:23Z
TLE epoch observation values (Epoch: 2026-03-03T04:23:29.161Z)
Latitude
-0.00005°
Longitude
135.18404°
Altitude
482.682 km
Speed
7.626 km/s
True Right ascension
00h 08m 05s
True Declination
0° 00' 00"
Sunlit
Object was in daylight at epoch
Visualization orbit readout
Latitude
Unknown
Longitude
Unknown
Altitude
Unknown
Speed
Unknown
Apparent Right ascension
Unknown
Apparent Declination
Unknown
Sunlit
N/A
Visualization observer readout
Local Sidereal Time
07:39:25
Azimuth
Unknown
Elevation
Unknown
Doppler factor
Unknown
Orbital elements
Apogee altitude
485.587 km
Perigee altitude
484.279 km
Semi-major axis
6,863.07 km
Eccentricity
0.0001
Inclination
42.9995°
RAAN
2.0213°
Arg. of periapsis
277.2402°
True anomaly
82.84494°
Mean anomaly
82.8341°
Eccentric anomaly
82.83952°
Mean motion
3.81738 °/min
Orbital period
94.31 mins
BSTAR
0.00095547
Loading maneuver chart data...
Computing Atmospheric mass density...
Loading historical data...
Loading historical data...
Loading historical data...
Loading historical data...
Loading historical data...
Loading historical data...
Loading historical data...

Documentation

Showing up to 5 results
|